This demonstration page uses our WeatherBlox Daily Observations layout. Learn more.

38.88101, -77.10428

Hourly Observations for September 12, 2018

Temp ( °F °C ) Dew Point ( °F °C ) Humidity (%) Winds ( mph kmh ) Pressure ( in mb ) Visibility ( mi km ) Precip ( " mm )
12:52 am 00:52 Cloudy 72 22.2 67 19.4 84 84 N 9 15 30.15 1021 10 16.0934 0 0
1:40 am 01:40 Cloudy 71 21.7 67 19.4 87 87 NE 6 9 30.15 1021 10 16.0934 0 0
1:52 am 01:52 Cloudy 71 21.7 67 19.4 87 87 NE 5 7 30.16 1022 10 16.0934 0 0
2:52 am 02:52 Cloudy 71 21.7 67 19.4 87 87 N 5 7 30.17 1022 9 14.48406 0 0
3:28 am 03:28 Cloudy 71 21.7 67 19.4 87 87 N 6 9 30.18 1022 10 16.0934 0 0
3:52 am 03:52 Cloudy 71 21.7 67 19.4 87 87 N 3 6 30.16 1021 8 12.87472 0 0
4:52 am 04:52 Cloudy 71 21.7 68 20 90 90 NNE 3 6 30.16 1021 8 12.87472 0 0
5:52 am 05:52 Cloudy with Mist and Fog 71 21.7 68 20 90 90 NNE 5 7 30.16 1022 6 9.65604 0 0
6:25 am 06:25 Cloudy with Mist and Fog 71 21.7 68 20 90 90 NE 6 9 30.18 1022 2.5 4.02335 0 0
6:52 am 06:52 Cloudy with Mist and Fog 71 21.7 68 20 90 90 N 3 6 30.19 1022 2.5 4.02335 0 0
7:52 am 07:52 Cloudy with Mist and Fog 72 22.2 68 20 87 87 NE 3 6 30.2 1023 2.5 4.02335 0 0
8:14 am 08:14 Cloudy with Mist and Fog 72 22.2 69 20.6 91 91 Calm 30.21 1023 3 4.82802 0 0
8:52 am 08:52 Cloudy with Haze 74 23.3 69 20.6 85 85 NNE 5 7 30.19 1023 3 4.82802 0 0
9:14 am 09:14 Cloudy with Haze 75 23.9 69 20.6 82 82 N 5 7 30.18 1022 3 4.82802 0 0
9:38 am 09:38 Cloudy with Haze 75 23.9 69 20.6 82 82 N 3 6 30.21 1023 4 6.43736 0 0
9:52 am 09:52 Cloudy with Haze 75 23.9 69 20.6 82 82 NNE 5 7 30.2 1023 4 6.43736 0 0
10:52 am 10:52 Cloudy with Haze 78 25.6 71 21.7 79 79 NNE 6 9 30.21 1023 4 6.43736 0 0
11:23 am 11:23 Cloudy with Haze 80 26.7 72 22.2 76 76 NNE 3 6 30.21 1023 4 6.43736 0 0
11:52 am 11:52 Cloudy with Haze 81 27.2 72 22.2 74 74 NE 3 6 30.21 1023 4 6.43736 0 0
12:01 pm 12:01 Cloudy 81 27.2 72 22.2 74 74 Calm 30.21 1023 9 14.48406 0 0
12:19 pm 12:19 Cloudy 81 27.2 72 22.2 74 74 Calm 30.21 1023 9 14.48406 0 0
12:52 pm 12:52 Cloudy 82 27.8 73 22.8 74 74 NE 5 7 30.21 1023 10 16.0934 0 0
1:52 pm 13:52 Mostly Cloudy 81 27.2 73 22.8 77 77 E 3 6 30.19 1022 10 16.0934 0 0
1:59 pm 13:59 Mostly Cloudy 82 27.8 73 22.8 74 74 E 3 6 30.18 1022 10 16.0934 0 0
2:52 pm 14:52 Mostly Cloudy with Light Rain 82 27.8 72 22.2 72 72 Calm 30.17 1022 10 16.0934 0 0.0254
3:52 pm 15:52 Mostly Cloudy 84 28.9 73 22.8 70 70 Calm 30.16 1021 10 16.0934 0 0.0254
4:52 pm 16:52 Mostly Cloudy 85 29.4 73 22.8 68 68 Calm 30.14 1021 10 16.0934 0 0
5:52 pm 17:52 Mostly Cloudy 81 27.2 71 21.7 72 72 ESE 8 13 30.16 1021 10 16.0934 0 0.0254
6:52 pm 18:52 Mostly Cloudy 82 27.8 68 20 63 63 Calm 30.16 1021 10 16.0934 0.01 0.254
7:22 pm 19:22 Mostly Cloudy 79 26.1 72 22.2 79 79 N 9 15 30.18 1022 10 16.0934 0 0
7:48 pm 19:48 Partly Cloudy 79 26 72 22 79 79 NNE 8 13 30.18 1022 10 16.0934 0 0
7:52 pm 19:52 Mostly Cloudy 78 25.6 71 21.7 79 79 N 8 13 30.17 1022 10 16.0934 0 0
8:52 pm 20:52 Mostly Cloudy 77 25 73 22.8 88 88 NE 8 13 30.18 1022 10 16.0934 0 0
9:52 pm 21:52 Mostly Cloudy 75 23.9 72 22.2 90 90 NNE 3 6 30.19 1022 10 16.0934 0 0
10:52 pm 22:52 Mostly Cloudy 77 25 74 23.3 90 90 NNE 5 7 30.18 1022 10 16.0934 0 0
11:52 pm 23:52 Partly Cloudy 76 24.4 73 22.8 91 91 NE 7 11 30.19 1022 10 16.0934 0 0

Powered by AerisWeather